Tracking 27423 objects as of 9-Jun-2023
HD Live streaming from Space Station
objects crossing your sky now

COSMOS 1275 DEB

Track COSMOS 1275 DEB now!
10-day predictions


NORAD ID: 12706
Int'l Code: 1981-053BA
Perigee: 901.0 km
Apogee: 1,058.9 km
Inclination: 82.9 °
Period: 104.5 minutes
Semi major axis: 7350 km
RCS: 0.0482 m2 (small)
Launch date: June 4, 1981
Source: Commonwealth of Independent States (former USSR) (CIS)
Launch site: PLESETSK MISSILE AND SPACE COMPLEX (PKMTR)

Note: This is SATELLITE DEBRIS
Your satellite tracking list
Your tracking list is empty




NASA's NSSDC Master Catalog

Two Line Element Set (TLE):
1 12706U 81053BA  23159.17688211  .00002048  00000-0  19599-2 0  9996
2 12706  82.8829  52.0631 0107345 254.6069 230.5407 13.77489205 86746
Source of the keplerian elements: AFSPC